Regional Weather Roundup
Issued by NWS Midland/Odessa, TX

Skip options and go directly to product.
Home | Oldest Version | Next Version | Current Version | All | Text Only | Save Text | Print | Product List | Glossary On

Skip product version selection by date and time.   
549
ASUS44 KMAF 250401
RWRMAF
MIDLAND AREA WEATHER ROUNDUP
NATIONAL WEATHER SERVICE MIDLAND TX
1100 PM CDT SUN JUL 24 2016

...IN SOUTHWEST TEXAS AND SOUTHEAST NEW MEXICO...

CITY           SKY/WX    TMP DP  RH WIND       PRES   REMARKS
ALPINE         CLEAR     83  55  37 SE13      30.13R
ANDREWS        MOCLDY    85  54  34 E6        30.03R
ARTESIA        CLEAR     90  52  27 E10       30.01R
BIG SPRING     CLEAR     91  60  36 E10       30.01R
CARLSBAD       CLEAR     87  53  31 E6        29.98R
DRYDEN           N/A     91  60  35 E13       29.92R
FORT STOCKTON  CLEAR     88  58  36 SE9       29.98R
GUAD PASS      CLEAR     81  46  29 NE15      30.17R
HOBBS          CLEAR     82  50  32 NE6       30.06R
MARFA          CLEAR     81  55  40 E12       30.11R
MIDLAND AIRPK  PTCLDY    91  55  30 E7        30.00R
MIDLAND INTL   PTCLDY    90  56  31 E12       29.99R
ODESSA         CLEAR     90  55  30 SE8       30.00R
PECOS          CLEAR     92  55  28 SE14      29.94R
PRESIDIO       FAIR      95  53  23 NE18      29.89R
SEMINOLE       CLEAR     84  52  33 E7        30.04R
SNYDER           N/A     86  61  43 E7        30.01R
WINK           CLEAR     91  55  29 E13       29.95R
$$
...OTHER STATIONS IN TEXAS...

CITY           SKY/WX    TMP DP  RH WIND       PRES   REMARKS
ABILENE        CLEAR     87  63  44 SE12      29.98R
AMARILLO       MOCLDY    83  57  41 SE13      30.10R
AUSTIN         PTCLDY    88  71  57 S8        29.91R
BROWNSVILLE    CLEAR     83  76  79 SE9       29.92S
CORPUS CHRISTI PTCLDY    83  77  82 SE10      29.92R
DALLAS FTW     PTCLDY    90  69  50 SE10      29.93R
DEL RIO        CLEAR     94  64  37 E10       29.86R
EL PASO        MOCLDY    96  44  16 N13       29.96R
HOUSTON INT    MOCLDY    86  74  67 S7        29.95R
LUBBOCK        PTCLDY    82  59  45 E7        30.05R
SAN ANGELO     CLEAR     85  60  42 E7        29.94R
SAN ANTONIO    PTCLDY    87  70  56 SE16      29.94R
WACO           CLEAR     87  68  52 SE6       29.92R
WICHITA FALLS  NOT AVBL
$$
...OTHER LOCATIONS IN NEW MEXICO...

CITY           SKY/WX    TMP DP  RH WIND       PRES   REMARKS
ALAMAGORDO     CLEAR     84  50  30 NW13G20   30.03R
ALBUQUERQUE    CLOUDY    77  52  41 N5        30.24R
CANNON AFB     CLOUDY    79  57  46 N17G25    30.16R
CLOVIS         CLOUDY    81  54  39 N20G31    30.17R
HOLLOMAN AFB   NOT AVBL
ROSWELL        CLEAR     88  48  25 E7        30.03R
RUIDOSO          N/A     72  45  37 N3        30.34R
SANTA FE       CLOUDY    74  49  41 N12       30.32R
TRUTH OR CONSE MOCLDY    85  47  26 N10G24    30.10R
TUCUMCARI      CLOUDY    76  58  53 N6        30.17R
$$

USA.gov is the U.S. government's official web portal to all federal, state and local government web resources and services.